This is the latest recevied weather packets stored in our database for station/object RA1AMO-10. If no packets are shown the sender has not sent any weather packets the latest 10 day(s).
| Time | Temp. | Humidity | Pressure | Rain* | Wind** | Luminosity | Snow |
|---|---|---|---|---|---|---|---|
| 1777454199 | 5° C | 42% | 1019 hPa | - | - | - | - |
| 1777453299 | 4.44° C | 43% | 1018.7 hPa | - | - | - | - |
| 1777452399 | 4.44° C | 42% | 1018.6 hPa | - | - | - | - |
| 1777451499 | 4.44° C | 43% | 1018.4 hPa | - | - | - | - |
| 1777450598 | 4.44° C | 45% | 1018.6 hPa | - | - | - | - |
| 1777449698 | 4.44° C | 46% | 1018.6 hPa | - | - | - | - |
| 1777448798 | 3.89° C | 48% | 1018.4 hPa | - | - | - | - |
| 1777447898 | 3.89° C | 48% | 1018.4 hPa | - | - | - | - |
| 1777446997 | 3.89° C | 48% | 1018.4 hPa | - | - | - | - |
| 1777446097 | 3.33° C | 49% | 1018.3 hPa | - | - | - | - |
| 1777445197 | 3.33° C | 50% | 1018.3 hPa | - | - | - | - |
| 1777444296 | 3.33° C | 50% | 1018.3 hPa | - | - | - | - |
| 1777443396 | 2.78° C | 51% | 1018.3 hPa | - | - | - | - |
| 1777442496 | 3.33° C | 51% | 1018.1 hPa | - | - | - | - |
| 1777441596 | 2.78° C | 51% | 1018 hPa | - | - | - | - |
| 1777440696 | 2.78° C | 51% | 1017.8 hPa | - | - | - | - |
| 1777439796 | 2.22° C | 52% | 1017.7 hPa | - | - | - | - |
| 1777438895 | 2.22° C | 53% | 1017.5 hPa | - | - | - | - |
| 1777434395 | 0.56° C | 58% | 1017.1 hPa | - | - | - | - |
| 1777429894 | 1.11° C | 57% | 1016.2 hPa | - | - | - | - |
| 1777428094 | 1.11° C | 56% | 1015.9 hPa | - | - | - | - |
| 1777412791 | 2.78° C | 52% | 1014.1 hPa | - | - | - | - |
| 1777411891 | 2.78° C | 52% | 1014 hPa | - | - | - | - |
| 1777410990 | 2.78° C | 52% | 1013.8 hPa | - | - | - | - |
| 1777410090 | 2.78° C | 53% | 1013.8 hPa | - | - | - | - |
* Rain since midnight (hover to see other rain measurements)
** Current wind speed in m/s (hover to see current wind gust speed)